Wetterdaten: Samstag, 17.10.2015
Datum Zeit Temp. A. Feuchte A. Luftdruck Regen Wind Richtung Richtung Sonnenschein ET UV Solar Taupunkt Windchill Windben Empfang
17.10.2015 00:00 4,9 C 95 % 1018,6 hPa 0,0 l/m 2,0 km/h (1 Bft) S-SW 202 0 min 0,000 mm 0,0 UV-I 0 W/m 4,2 C 4,9 C 4,8 km/h (1 Bft) 99,08 %
17.10.2015 00:05 4,9 C 95 % 1018,6 hPa 0,0 l/m 3,4 km/h (1 Bft) S 188 0 min 0,000 mm 0,0 UV-I 0 W/m 4,2 C 4,9 C 4,8 km/h (1 Bft) 73,33 %
17.10.2015 00:10 4,9 C 95 % 1018,7 hPa 0,0 l/m 1,5 km/h (1 Bft) S 180 0 min 0,000 mm 0,0 UV-I 0 W/m 4,2 C 4,9 C 3,2 km/h (1 Bft) 99,17 %
17.10.2015 00:15 4,9 C 95 % 1018,7 hPa 0,0 l/m 1,9 km/h (1 Bft) S 175 0 min 0,000 mm 0,0 UV-I 0 W/m 4,2 C 4,9 C 4,8 km/h (1 Bft) 100,00 %
17.10.2015 00:20 5,0 C 95 % 1018,7 hPa 0,0 l/m 2,3 km/h (1 Bft) S-SW 192 0 min 0,000 mm 0,0 UV-I 0 W/m 4,3 C 5,0 C 4,8 km/h (1 Bft) 98,39 %
17.10.2015 00:25 5,0 C 95 % 1018,7 hPa 0,0 l/m 1,5 km/h (1 Bft) S 190 0 min 0,000 mm 0,0 UV-I 0 W/m 4,3 C 5,0 C 3,2 km/h (1 Bft) 99,08 %
17.10.2015 00:30 4,9 C 95 % 1018,6 hPa 0,0 l/m 1,3 km/h (1 Bft) S 190 0 min 0,000 mm 0,0 UV-I 0 W/m 4,2 C 4,9 C 4,8 km/h (1 Bft) 96,75 %
17.10.2015 00:35 4,8 C 95 % 1018,7 hPa 0,0 l/m 1,1 km/h (1 Bft) S-SW 192 0 min 0,000 mm 0,0 UV-I 0 W/m 4,1 C 4,8 C 3,2 km/h (1 Bft) 100,00 %
17.10.2015 00:40 4,8 C 96 % 1018,6 hPa 0,0 l/m 1,6 km/h (1 Bft) S-SW 192 0 min 0,000 mm 0,0 UV-I 0 W/m 4,2 C 4,8 C 3,2 km/h (1 Bft) 100,00 %
17.10.2015 00:45 4,8 C 96 % 1018,6 hPa 0,0 l/m 1,5 km/h (1 Bft) S-SW 192 0 min 0,000 mm 0,0 UV-I 0 W/m 4,2 C 4,8 C 3,2 km/h (1 Bft) 98,17 %
17.10.2015 00:50 4,8 C 95 % 1018,4 hPa 0,0 l/m 1,1 km/h (1 Bft) SW 225 0 min 0,000 mm 0,0 UV-I 0 W/m 4,1 C 4,8 C 3,2 km/h (1 Bft) 100,00 %
17.10.2015 00:55 4,7 C 95 % 1018,4 hPa 0,0 l/m 0,8 km/h (0 Bft) SW 226 0 min 0,000 mm 0,0 UV-I 0 W/m 4,0 C 4,7 C 3,2 km/h (1 Bft) 98,45 %
17.10.2015 01:00 4,5 C 96 % 1018,4 hPa 0,0 l/m 1,4 km/h (1 Bft) SW 226 0 min 0,000 mm 0,0 UV-I 0 W/m 3,9 C 4,5 C 3,2 km/h (1 Bft) 100,00 %
17.10.2015 01:05 4,4 C 96 % 1018,4 hPa 0,0 l/m 0,3 km/h (0 Bft) SW 226 0 min 0,000 mm 0,0 UV-I 0 W/m 3,8 C 4,4 C 1,6 km/h (1 Bft) 98,31 %
17.10.2015 01:10 4,3 C 96 % 1018,3 hPa 0,0 l/m 0,9 km/h (0 Bft) SW 226 0 min 0,000 mm 0,0 UV-I 0 W/m 3,7 C 4,3 C 3,2 km/h (1 Bft) 100,00 %
17.10.2015 01:15 4,2 C 96 % 1018,3 hPa 0,0 l/m 1,1 km/h (1 Bft) SW 227 0 min 0,000 mm 0,0 UV-I 0 W/m 3,6 C 4,2 C 3,2 km/h (1 Bft) 100,00 %
17.10.2015 01:20 4,1 C 96 % 1018,4 hPa 0,0 l/m 2,0 km/h (1 Bft) SW 223 0 min 0,000 mm 0,0 UV-I 0 W/m 3,5 C 4,1 C 3,2 km/h (1 Bft) 99,11 %
17.10.2015 01:25 4,0 C 96 % 1018,4 hPa 0,0 l/m 2,0 km/h (1 Bft) S-SW 201 0 min 0,000 mm 0,0 UV-I 0 W/m 3,4 C 4,0 C 3,2 km/h (1 Bft) 98,33 %
17.10.2015 01:30 4,0 C 96 % 1018,4 hPa 0,0 l/m 1,4 km/h (1 Bft) S-SW 201 0 min 0,000 mm 0,0 UV-I 0 W/m 3,4 C 4,0 C 3,2 km/h (1 Bft) 100,00 %
17.10.2015 01:35 3,9 C 96 % 1018,4 hPa 0,0 l/m 0,9 km/h (0 Bft) W-SW 256 0 min 0,000 mm 0,0 UV-I 0 W/m 3,3 C 3,9 C 3,2 km/h (1 Bft) 100,00 %
17.10.2015 01:40 3,9 C 96 % 1018,3 hPa 0,0 l/m 1,3 km/h (1 Bft) W-SW 250 0 min 0,000 mm 0,0 UV-I 0 W/m 3,3 C 3,9 C 3,2 km/h (1 Bft) 99,21 %
17.10.2015 01:45 3,8 C 96 % 1018,3 hPa 0,0 l/m 2,7 km/h (1 Bft) S-SW 209 0 min 0,000 mm 0,0 UV-I 0 W/m 3,2 C 3,8 C 6,4 km/h (2 Bft) 100,00 %
17.10.2015 01:50 3,7 C 96 % 1018,3 hPa 0,0 l/m 1,5 km/h (1 Bft) SW 219 0 min 0,000 mm 0,0 UV-I 0 W/m 3,1 C 3,7 C 3,2 km/h (1 Bft) 100,00 %
17.10.2015 01:55 3,8 C 97 % 1018,4 hPa 0,0 l/m 1,6 km/h (1 Bft) SW 227 0 min 0,000 mm 0,0 UV-I 0 W/m 3,4 C 3,8 C 3,2 km/h (1 Bft) 98,17 %
17.10.2015 02:00 3,9 C 97 % 1018,4 hPa 0,0 l/m 2,8 km/h (1 Bft) SW 216 0 min 0,000 mm 0,0 UV-I 0 W/m 3,5 C 3,9 C 4,8 km/h (1 Bft) 99,15 %
17.10.2015 02:05 4,1 C 96 % 1018,5 hPa 0,0 l/m 3,6 km/h (1 Bft) SW 225 0 min 0,000 mm 0,0 UV-I 0 W/m 3,5 C 4,1 C 6,4 km/h (2 Bft) 100,00 %
17.10.2015 02:10 4,2 C 96 % 1018,5 hPa 0,0 l/m 3,5 km/h (1 Bft) S-SW 209 0 min 0,000 mm 0,0 UV-I 0 W/m 3,6 C 4,2 C 4,8 km/h (1 Bft) 99,17 %
17.10.2015 02:15 4,3 C 95 % 1018,6 hPa 0,0 l/m 1,4 km/h (1 Bft) SW 215 0 min 0,000 mm 0,0 UV-I 0 W/m 3,6 C 4,3 C 3,2 km/h (1 Bft) 99,15 %
17.10.2015 02:20 4,4 C 95 % 1018,6 hPa 0,0 l/m 1,7 km/h (1 Bft) SW 215 0 min 0,000 mm 0,0 UV-I 0 W/m 3,7 C 4,4 C 3,2 km/h (1 Bft) 99,13 %
17.10.2015 02:25 4,6 C 95 % 1018,6 hPa 0,0 l/m 1,9 km/h (1 Bft) SW 232 0 min 0,000 mm 0,0 UV-I 0 W/m 3,9 C 4,6 C 3,2 km/h (1 Bft) 100,00 %
17.10.2015 02:30 4,6 C 95 % 1018,7 hPa 0,0 l/m 1,8 km/h (1 Bft) SW 231 0 min 0,000 mm 0,0 UV-I 0 W/m 3,9 C 4,6 C 4,8 km/h (1 Bft) 100,00 %
17.10.2015 02:35 4,6 C 95 % 1018,6 hPa 0,0 l/m 0,4 km/h (0 Bft) SW 231 0 min 0,000 mm 0,0 UV-I 0 W/m 3,9 C 4,6 C 1,6 km/h (1 Bft) 100,00 %
17.10.2015 02:40 4,7 C 95 % 1018,6 hPa 0,0 l/m 0,3 km/h (0 Bft) SW 231 0 min 0,000 mm 0,0 UV-I 0 W/m 4,0 C 4,7 C 1,6 km/h (1 Bft) 98,21 %
17.10.2015 02:45 4,7 C 95 % 1018,5 hPa 0,0 l/m 0,8 km/h (0 Bft) SW 231 0 min 0,000 mm 0,0 UV-I 0 W/m 4,0 C 4,7 C 3,2 km/h (1 Bft) 99,21 %
17.10.2015 02:50 4,7 C 95 % 1018,5 hPa 0,0 l/m 1,1 km/h (1 Bft) SW 231 0 min 0,000 mm 0,0 UV-I 0 W/m 4,0 C 4,7 C 3,2 km/h (1 Bft) 100,00 %
17.10.2015 02:55 4,7 C 95 % 1018,4 hPa 0,0 l/m 0,5 km/h (0 Bft) SW 231 0 min 0,000 mm 0,0 UV-I 0 W/m 4,0 C 4,7 C 1,6 km/h (1 Bft) 99,11 %
17.10.2015 03:00 4,7 C 95 % 1018,4 hPa 0,0 l/m 1,1 km/h (1 Bft) W-SW 238 0 min 0,000 mm 0,0 UV-I 0 W/m 4,0 C 4,7 C 3,2 km/h (1 Bft) 98,33 %
17.10.2015 03:05 4,7 C 95 % 1018,5 hPa 0,0 l/m 1,2 km/h (1 Bft) W-SW 244 0 min 0,000 mm 0,0 UV-I 0 W/m 4,0 C 4,7 C 3,2 km/h (1 Bft) 100,00 %
17.10.2015 03:10 4,7 C 95 % 1018,5 hPa 0,0 l/m 0,9 km/h (0 Bft) W-SW 244 0 min 0,000 mm 0,0 UV-I 0 W/m 4,0 C 4,7 C 3,2 km/h (1 Bft) 97,30 %
17.10.2015 03:15 4,8 C 95 % 1018,5 hPa 0,0 l/m 0,9 km/h (0 Bft) W-SW 253 0 min 0,000 mm 0,0 UV-I 0 W/m 4,1 C 4,8 C 3,2 km/h (1 Bft) 100,00 %
17.10.2015 03:20 4,8 C 95 % 1018,5 hPa 0,0 l/m 1,6 km/h (1 Bft) W-SW 242 0 min 0,000 mm 0,0 UV-I 0 W/m 4,1 C 4,8 C 3,2 km/h (1 Bft) 99,21 %
17.10.2015 03:25 4,8 C 95 % 1018,6 hPa 0,0 l/m 1,7 km/h (1 Bft) SW 223 0 min 0,000 mm 0,0 UV-I 0 W/m 4,1 C 4,8 C 4,8 km/h (1 Bft) 100,00 %
17.10.2015 03:30 4,8 C 95 % 1018,5 hPa 0,0 l/m 1,3 km/h (1 Bft) SW 227 0 min 0,000 mm 0,0 UV-I 0 W/m 4,1 C 4,8 C 3,2 km/h (1 Bft) 98,39 %
17.10.2015 03:35 4,9 C 94 % 1018,6 hPa 0,0 l/m 1,4 km/h (1 Bft) SW 226 0 min 0,000 mm 0,0 UV-I 0 W/m 4,0 C 4,9 C 3,2 km/h (1 Bft) 100,00 %
17.10.2015 03:40 4,9 C 94 % 1018,5 hPa 0,0 l/m 0,9 km/h (0 Bft) SW 226 0 min 0,000 mm 0,0 UV-I 0 W/m 4,0 C 4,9 C 3,2 km/h (1 Bft) 99,15 %
17.10.2015 03:45 4,9 C 94 % 1018,6 hPa 0,0 l/m 0,8 km/h (0 Bft) SW 226 0 min 0,000 mm 0,0 UV-I 0 W/m 4,0 C 4,9 C 3,2 km/h (1 Bft) 99,15 %
17.10.2015 03:50 4,9 C 94 % 1018,6 hPa 0,0 l/m 0,6 km/h (0 Bft) S-SO 165 0 min 0,000 mm 0,0 UV-I 0 W/m 4,0 C 4,9 C 3,2 km/h (1 Bft) 99,11 %
17.10.2015 03:55 4,8 C 95 % 1018,6 hPa 0,0 l/m 1,5 km/h (1 Bft) S 173 0 min 0,000 mm 0,0 UV-I 0 W/m 4,1 C 4,8 C 3,2 km/h (1 Bft) 100,00 %
17.10.2015 04:00 4,8 C 94 % 1018,6 hPa 0,0 l/m 1,6 km/h (1 Bft) S 169 0 min 0,000 mm 0,0 UV-I 0 W/m 3,9 C 4,8 C 3,2 km/h (1 Bft) 100,00 %
17.10.2015 04:05 4,8 C 95 % 1018,5 hPa 0,0 l/m 1,3 km/h (1 Bft) S-SO 161 0 min 0,000 mm 0,0 UV-I 0 W/m 4,1 C 4,8 C 3,2 km/h (1 Bft) 99,00 %
17.10.2015 04:10 4,8 C 95 % 1018,6 hPa 0,0 l/m 1,0 km/h (0 Bft) S-SO 168 0 min 0,000 mm 0,0 UV-I 0 W/m 4,1 C 4,8 C 4,8 km/h (1 Bft) 100,00 %
17.10.2015 04:15 4,8 C 95 % 1018,5 hPa 0,0 l/m 0,4 km/h (0 Bft) S-SO 168 0 min 0,000 mm 0,0 UV-I 0 W/m 4,1 C 4,8 C 1,6 km/h (1 Bft) 100,00 %
17.10.2015 04:20 4,8 C 95 % 1018,5 hPa 0,0 l/m 0,6 km/h (0 Bft) S-SO 168 0 min 0,000 mm 0,0 UV-I 0 W/m 4,1 C 4,8 C 1,6 km/h (1 Bft) 99,12 %
17.10.2015 04:25 4,8 C 95 % 1018,5 hPa 0,0 l/m 1,4 km/h (1 Bft) S-SO 164 0 min 0,000 mm 0,0 UV-I 0 W/m 4,1 C 4,8 C 4,8 km/h (1 Bft) 98,26 %
17.10.2015 04:30 4,8 C 95 % 1018,5 hPa 0,0 l/m 0,9 km/h (0 Bft) S-SO 160 0 min 0,000 mm 0,0 UV-I 0 W/m 4,1 C 4,8 C 3,2 km/h (1 Bft) 100,00 %
17.10.2015 04:35 4,8 C 95 % 1018,5 hPa 0,0 l/m 0,5 km/h (0 Bft) S-SO 160 0 min 0,000 mm 0,0 UV-I 0 W/m 4,1 C 4,8 C 1,6 km/h (1 Bft) 100,00 %
17.10.2015 04:40 4,9 C 95 % 1018,5 hPa 0,0 l/m 0,3 km/h (0 Bft) S-SO 160 0 min 0,000 mm 0,0 UV-I 0 W/m 4,2 C 4,9 C 1,6 km/h (1 Bft) 100,00 %
17.10.2015 04:45 4,9 C 95 % 1018,5 hPa 0,0 l/m 0,3 km/h (0 Bft) S-SO 160 0 min 0,000 mm 0,0 UV-I 0 W/m 4,2 C 4,9 C 1,6 km/h (1 Bft) 100,00 %
17.10.2015 04:50 4,9 C 95 % 1018,6 hPa 0,0 l/m 0,2 km/h (0 Bft) S-SO 160 0 min 0,000 mm 0,0 UV-I 0 W/m 4,2 C 4,9 C 1,6 km/h (1 Bft) 100,00 %
17.10.2015 04:55 4,9 C 95 % 1018,6 hPa 0,0 l/m 0,1 km/h (0 Bft) S-SO 160 0 min 0,000 mm 0,0 UV-I 0 W/m 4,2 C 4,9 C 1,6 km/h (1 Bft) 98,26 %
17.10.2015 05:00 4,9 C 95 % 1018,6 hPa 0,0 l/m 0,0 km/h (0 Bft) S-SO 160 0 min 0,000 mm 0,0 UV-I 0 W/m 4,2 C 4,9 C 0,0 km/h (0 Bft) 100,00 %
17.10.2015 05:05 4,9 C 95 % 1018,5 hPa 0,0 l/m 0,0 km/h (0 Bft) S-SO 160 0 min 0,000 mm 0,0 UV-I 0 W/m 4,2 C 4,9 C 1,6 km/h (1 Bft) 99,13 %
17.10.2015 05:10 4,9 C 94 % 1018,5 hPa 0,0 l/m 0,5 km/h (0 Bft) S-SO 160 0 min 0,000 mm 0,0 UV-I 0 W/m 4,0 C 4,9 C 1,6 km/h (1 Bft) 99,17 %
17.10.2015 05:15 4,9 C 94 % 1018,5 hPa 0,0 l/m 0,9 km/h (0 Bft) S-SO 161 0 min 0,000 mm 0,0 UV-I 0 W/m 4,0 C 4,9 C 3,2 km/h (1 Bft) 99,15 %
17.10.2015 05:20 4,9 C 95 % 1018,5 hPa 0,0 l/m 1,1 km/h (1 Bft) S-SO 161 0 min 0,000 mm 0,0 UV-I 0 W/m 4,2 C 4,9 C 3,2 km/h (1 Bft) 100,00 %
17.10.2015 05:25 4,9 C 95 % 1018,5 hPa 0,0 l/m 0,4 km/h (0 Bft) S 184 0 min 0,000 mm 0,0 UV-I 0 W/m 4,2 C 4,9 C 1,6 km/h (1 Bft) 99,15 %
17.10.2015 05:30 4,8 C 95 % 1018,5 hPa 0,0 l/m 0,0 km/h (0 Bft) S 184 0 min 0,000 mm 0,0 UV-I 0 W/m 4,1 C 4,8 C 1,6 km/h (1 Bft) 99,19 %
17.10.2015 05:35 4,9 C 95 % 1018,5 hPa 0,0 l/m 0,0 km/h (0 Bft) S 184 0 min 0,000 mm 0,0 UV-I 0 W/m 4,2 C 4,9 C 0,0 km/h (0 Bft) 100,00 %
17.10.2015 05:40 4,9 C 95 % 1018,5 hPa 0,0 l/m 0,5 km/h (0 Bft) S 184 0 min 0,000 mm 0,0 UV-I 0 W/m 4,2 C 4,9 C 1,6 km/h (1 Bft) 99,21 %
17.10.2015 05:45 4,8 C 95 % 1018,5 hPa 0,0 l/m 0,1 km/h (0 Bft) S 184 0 min 0,000 mm 0,0 UV-I 0 W/m 4,1 C 4,8 C 1,6 km/h (1 Bft) 100,00 %
17.10.2015 05:50 4,8 C 95 % 1018,5 hPa 0,0 l/m 0,6 km/h (0 Bft) S 184 0 min 0,000 mm 0,0 UV-I 0 W/m 4,1 C 4,8 C 1,6 km/h (1 Bft) 100,00 %
17.10.2015 05:55 4,8 C 96 % 1018,5 hPa 0,0 l/m 1,4 km/h (1 Bft) O-SO 122 0 min 0,000 mm 0,0 UV-I 0 W/m 4,2 C 4,8 C 4,8 km/h (1 Bft) 98,37 %
17.10.2015 06:00 4,8 C 95 % 1018,6 hPa 0,0 l/m 0,9 km/h (0 Bft) O-SO 122 0 min 0,000 mm 0,0 UV-I 0 W/m 4,1 C 4,8 C 3,2 km/h (1 Bft) 100,00 %
17.10.2015 06:05 4,8 C 95 % 1018,5 hPa 0,0 l/m 0,2 km/h (0 Bft) O-SO 122 0 min 0,000 mm 0,0 UV-I 0 W/m 4,1 C 4,8 C 1,6 km/h (1 Bft) 100,00 %
17.10.2015 06:10 4,9 C 95 % 1018,5 hPa 0,0 l/m 0,3 km/h (0 Bft) O-SO 122 0 min 0,000 mm 0,0 UV-I 0 W/m 4,2 C 4,9 C 1,6 km/h (1 Bft) 99,17 %
17.10.2015 06:15 4,9 C 95 % 1018,5 hPa 0,0 l/m 0,1 km/h (0 Bft) O-SO 122 0 min 0,000 mm 0,0 UV-I 0 W/m 4,2 C 4,9 C 1,6 km/h (1 Bft) 98,17 %
17.10.2015 06:20 4,9 C 95 % 1018,6 hPa 0,0 l/m 0,8 km/h (0 Bft) SO 143 0 min 0,000 mm 0,0 UV-I 0 W/m 4,2 C 4,9 C 3,2 km/h (1 Bft) 98,21 %
17.10.2015 06:25 4,9 C 95 % 1018,6 hPa 0,0 l/m 0,0 km/h (0 Bft) SO 143 0 min 0,000 mm 0,0 UV-I 0 W/m 4,2 C 4,9 C 1,6 km/h (1 Bft) 98,41 %
17.10.2015 06:30 4,9 C 96 % 1018,6 hPa 0,0 l/m 0,0 km/h (0 Bft) SO 143 0 min 0,000 mm 0,0 UV-I 0 W/m 4,3 C 4,9 C 0,0 km/h (0 Bft) 100,00 %
17.10.2015 06:35 4,9 C 96 % 1018,6 hPa 0,0 l/m 0,0 km/h (0 Bft) SO 143 0 min 0,000 mm 0,0 UV-I 0 W/m 4,3 C 4,9 C 0,0 km/h (0 Bft) 99,21 %
17.10.2015 06:40 4,9 C 96 % 1018,5 hPa 0,0 l/m 0,0 km/h (0 Bft) SO 143 0 min 0,000 mm 0,0 UV-I 0 W/m 4,3 C 4,9 C 0,0 km/h (0 Bft) 100,00 %
17.10.2015 06:45 4,9 C 96 % 1018,5 hPa 0,0 l/m 0,0 km/h (0 Bft) SO 143 0 min 0,000 mm 0,0 UV-I 0 W/m 4,3 C 4,9 C 0,0 km/h (0 Bft) 99,19 %
17.10.2015 06:50 4,9 C 96 % 1018,6 hPa 0,0 l/m 0,0 km/h (0 Bft) SO 143 0 min 0,000 mm 0,0 UV-I 0 W/m 4,3 C 4,9 C 0,0 km/h (0 Bft) 98,10 %
17.10.2015 06:55 4,9 C 96 % 1018,6 hPa 0,0 l/m 0,0 km/h (0 Bft) SO 143 0 min 0,000 mm 0,0 UV-I 0 W/m 4,3 C 4,9 C 0,0 km/h (0 Bft) 98,39 %
17.10.2015 07:00 4,9 C 96 % 1018,7 hPa 0,0 l/m 1,1 km/h (1 Bft) SW 236 0 min 0,000 mm 0,0 UV-I 0 W/m 4,3 C 4,9 C 3,2 km/h (1 Bft) 99,13 %
17.10.2015 07:05 4,9 C 96 % 1018,7 hPa 0,0 l/m 0,2 km/h (0 Bft) W 260 0 min 0,000 mm 0,0 UV-I 0 W/m 4,3 C 4,9 C 1,6 km/h (1 Bft) 97,56 %
17.10.2015 07:10 4,8 C 96 % 1018,7 hPa 0,0 l/m 0,2 km/h (0 Bft) NW 321 0 min 0,000 mm 0,0 UV-I 0 W/m 4,2 C 4,8 C 1,6 km/h (1 Bft) 100,00 %
17.10.2015 07:15 4,8 C 96 % 1018,7 hPa 0,0 l/m 0,2 km/h (0 Bft) NW 321 0 min 0,000 mm 0,0 UV-I 0 W/m 4,2 C 4,8 C 1,6 km/h (1 Bft) 100,00 %
17.10.2015 07:20 4,9 C 96 % 1018,7 hPa 0,0 l/m 0,0 km/h (0 Bft) NW 321 0 min 0,000 mm 0,0 UV-I 0 W/m 4,3 C 4,9 C 1,6 km/h (1 Bft) 100,00 %
17.10.2015 07:25 4,8 C 96 % 1018,8 hPa 0,0 l/m 0,1 km/h (0 Bft) NW 323 0 min 0,000 mm 0,0 UV-I 0 W/m 4,2 C 4,8 C 1,6 km/h (1 Bft) 100,00 %
17.10.2015 07:30 4,8 C 96 % 1018,8 hPa 0,0 l/m 0,0 km/h (0 Bft) NW 323 0 min 0,000 mm 0,0 UV-I 0 W/m 4,2 C 4,8 C 0,0 km/h (0 Bft) 98,33 %
17.10.2015 07:35 4,9 C 96 % 1018,8 hPa 0,0 l/m 0,0 km/h (0 Bft) NW 323 0 min 0,000 mm 0,0 UV-I 0 W/m 4,3 C 4,9 C 0,0 km/h (0 Bft) 100,00 %
17.10.2015 07:40 4,9 C 96 % 1018,9 hPa 0,0 l/m 0,0 km/h (0 Bft) NW 323 0 min 0,000 mm 0,0 UV-I 0 W/m 4,3 C 4,9 C 0,0 km/h (0 Bft) 99,17 %
17.10.2015 07:45 4,9 C 96 % 1018,9 hPa 0,0 l/m 0,0 km/h (0 Bft) NW 323 0 min 0,000 mm 0,0 UV-I 6 W/m 4,3 C 4,9 C 0,0 km/h (0 Bft) 99,19 %
17.10.2015 07:50 4,9 C 96 % 1018,9 hPa 0,0 l/m 0,0 km/h (0 Bft) NW 323 0 min 0,000 mm 0,0 UV-I 9 W/m 4,3 C 4,9 C 0,0 km/h (0 Bft) 100,00 %
17.10.2015 07:55 4,9 C 96 % 1018,9 hPa 0,0 l/m 0,2 km/h (0 Bft) NW 323 0 min 0,000 mm 0,0 UV-I 11 W/m 4,3 C 4,9 C 1,6 km/h (1 Bft) 97,56 %
17.10.2015 08:00 5,0 C 96 % 1019,0 hPa 0,0 l/m 0,2 km/h (0 Bft) NW 323 0 min 0,000 mm 0,0 UV-I 9 W/m 4,4 C 5,0 C 1,6 km/h (1 Bft) 99,17 %
17.10.2015 08:05 5,0 C 96 % 1019,0 hPa 0,0 l/m 0,2 km/h (0 Bft) N-NW 344 0 min 0,000 mm 0,0 UV-I 12 W/m 4,4 C 5,0 C 1,6 km/h (1 Bft) 100,00 %
17.10.2015 08:10 5,1 C 96 % 1018,9 hPa 0,0 l/m 0,9 km/h (0 Bft) O-NO 72 0 min 0,000 mm 0,0 UV-I 16 W/m 4,5 C 5,1 C 3,2 km/h (1 Bft) 99,15 %
17.10.2015 08:15 5,1 C 97 % 1019,0 hPa 0,0 l/m 0,4 km/h (0 Bft) O 86 0 min 0,000 mm 0,0 UV-I 24 W/m 4,7 C 5,1 C 1,6 km/h (1 Bft) 100,00 %
17.10.2015 08:20 5,1 C 97 % 1019,0 hPa 0,0 l/m 0,6 km/h (0 Bft) O 86 0 min 0,000 mm 0,0 UV-I 28 W/m 4,7 C 5,1 C 1,6 km/h (1 Bft) 99,17 %
17.10.2015 08:25 5,1 C 96 % 1019,0 hPa 0,0 l/m 0,7 km/h (0 Bft) O 85 0 min 0,000 mm 0,0 UV-I 33 W/m 4,5 C 5,1 C 1,6 km/h (1 Bft) 100,00 %
17.10.2015 08:30 5,2 C 96 % 1019,0 hPa 0,0 l/m 0,5 km/h (0 Bft) O 85 0 min 0,000 mm 0,0 UV-I 44 W/m 4,6 C 5,2 C 1,6 km/h (1 Bft) 100,00 %
17.10.2015 08:35 5,3 C 97 % 1019,1 hPa 0,0 l/m 0,3 km/h (0 Bft) O 90 0 min 0,000 mm 0,0 UV-I 59 W/m 4,9 C 5,3 C 1,6 km/h (1 Bft) 98,33 %
17.10.2015 08:40 5,3 C 96 % 1019,1 hPa 0,0 l/m 0,0 km/h (0 Bft) O 90 0 min 0,000 mm 0,0 UV-I 70 W/m 4,7 C 5,3 C 1,6 km/h (1 Bft) 100,00 %
17.10.2015 08:45 5,4 C 96 % 1019,2 hPa 0,0 l/m 0,0 km/h (0 Bft) O 90 0 min 0,000 mm 0,0 UV-I 67 W/m 4,8 C 5,4 C 1,6 km/h (1 Bft) 99,17 %
17.10.2015 08:50 5,4 C 96 % 1019,3 hPa 0,0 l/m 1,0 km/h (0 Bft) SO 128 0 min 0,000 mm 0,0 UV-I 70 W/m 4,8 C 5,4 C 1,6 km/h (1 Bft) 100,00 %
17.10.2015 08:55 5,4 C 96 % 1019,3 hPa 0,0 l/m 0,2 km/h (0 Bft) SO 128 0 min 0,000 mm 0,0 UV-I 81 W/m 4,8 C 5,4 C 1,6 km/h (1 Bft) 100,00 %
17.10.2015 09:00 5,6 C 95 % 1019,2 hPa 0,0 l/m 0,0 km/h (0 Bft) SO 128 0 min 0,025 mm 0,0 UV-I 98 W/m 4,9 C 5,6 C 1,6 km/h (1 Bft) 100,00 %
17.10.2015 09:05 5,7 C 95 % 1019,2 hPa 0,0 l/m 0,2 km/h (0 Bft) SO 128 0 min 0,000 mm 0,0 UV-I 111 W/m 5,0 C 5,7 C 1,6 km/h (1 Bft) 100,00 %
17.10.2015 09:10 5,8 C 95 % 1019,3 hPa 0,0 l/m 0,3 km/h (0 Bft) SO 128 0 min 0,000 mm 0,0 UV-I 96 W/m 5,1 C 5,8 C 1,6 km/h (1 Bft) 98,39 %
17.10.2015 09:15 5,8 C 94 % 1019,2 hPa 0,0 l/m 0,3 km/h (0 Bft) SO 129 0 min 0,000 mm 0,0 UV-I 97 W/m 4,9 C 5,8 C 1,6 km/h (1 Bft) 100,00 %
17.10.2015 09:20 5,9 C 95 % 1019,1 hPa 0,0 l/m 0,2 km/h (0 Bft) SO 129 0 min 0,000 mm 0,0 UV-I 100 W/m 5,2 C 5,9 C 1,6 km/h (1 Bft) 98,37 %
17.10.2015 09:25 5,9 C 95 % 1019,2 hPa 0,0 l/m 0,5 km/h (0 Bft) S-SO 162 0 min 0,000 mm 0,0 UV-I 107 W/m 5,2 C 5,9 C 3,2 km/h (1 Bft) 99,11 %
17.10.2015 09:30 6,0 C 95 % 1019,1 hPa 0,0 l/m 0,6 km/h (0 Bft) S 189 0 min 0,000 mm 0,0 UV-I 139 W/m 5,3 C 6,0 C 3,2 km/h (1 Bft) 99,15 %
17.10.2015 09:35 6,2 C 93 % 1019,1 hPa 0,0 l/m 0,5 km/h (0 Bft) S 189 5 min 0,000 mm 0,4 UV-I 178 W/m 5,2 C 6,2 C 1,6 km/h (1 Bft) 99,17 %
17.10.2015 09:40 6,3 C 93 % 1019,2 hPa 0,0 l/m 0,7 km/h (0 Bft) W 277 5 min 0,000 mm 0,5 UV-I 199 W/m 5,3 C 6,3 C 3,2 km/h (1 Bft) 99,11 %
17.10.2015 09:45 6,4 C 93 % 1019,1 hPa 0,0 l/m 1,9 km/h (1 Bft) W 271 5 min 0,000 mm 0,6 UV-I 238 W/m 5,4 C 6,4 C 3,2 km/h (1 Bft) 100,00 %
17.10.2015 09:50 6,6 C 91 % 1019,2 hPa 0,0 l/m 1,9 km/h (1 Bft) W 275 5 min 0,000 mm 0,7 UV-I 318 W/m 5,2 C 6,6 C 3,2 km/h (1 Bft) 100,00 %
17.10.2015 09:55 6,8 C 91 % 1019,2 hPa 0,0 l/m 2,0 km/h (1 Bft) W-SW 248 5 min 0,000 mm 0,7 UV-I 296 W/m 5,4 C 6,8 C 4,8 km/h (1 Bft) 100,00 %
17.10.2015 10:00 6,9 C 90 % 1019,2 hPa 0,0 l/m 2,2 km/h (1 Bft) S-SW 209 5 min 0,077 mm 0,7 UV-I 324 W/m 5,4 C 6,9 C 6,4 km/h (2 Bft) 99,19 %
17.10.2015 10:05 7,0 C 88 % 1019,2 hPa 0,0 l/m 2,4 km/h (1 Bft) S-SW 205 5 min 0,000 mm 0,8 UV-I 349 W/m 5,2 C 7,0 C 4,8 km/h (1 Bft) 100,00 %
17.10.2015 10:10 6,9 C 85 % 1019,2 hPa 0,0 l/m 1,9 km/h (1 Bft) S-SW 195 5 min 0,000 mm 0,7 UV-I 218 W/m 4,6 C 6,9 C 4,8 km/h (1 Bft) 100,00 %
17.10.2015 10:15 7,1 C 87 % 1019,2 hPa 0,0 l/m 1,6 km/h (1 Bft) SW 236 5 min 0,000 mm 0,8 UV-I 274 W/m 5,1 C 7,1 C 6,4 km/h (2 Bft) 99,11 %
17.10.2015 10:20 7,2 C 85 % 1019,1 hPa 0,0 l/m 2,0 km/h (1 Bft) S 173 5 min 0,000 mm 0,9 UV-I 352 W/m 4,9 C 7,2 C 6,4 km/h (2 Bft) 99,19 %
17.10.2015 10:25 7,4 C 87 % 1019,1 hPa 0,0 l/m 1,4 km/h (1 Bft) S-SW 193 5 min 0,000 mm 0,9 UV-I 331 W/m 5,4 C 7,4 C 4,8 km/h (1 Bft) 100,00 %
17.10.2015 10:30 7,2 C 84 % 1019,1 hPa 0,0 l/m 2,9 km/h (1 Bft) S-SW 193 5 min 0,000 mm 1,0 UV-I 351 W/m 4,7 C 7,2 C 8,0 km/h (2 Bft) 99,13 %
17.10.2015 10:35 7,1 C 84 % 1019,1 hPa 0,0 l/m 1,5 km/h (1 Bft) W-SW 238 0 min 0,000 mm 0,9 UV-I 180 W/m 4,6 C 7,1 C 3,2 km/h (1 Bft) 100,00 %
17.10.2015 10:40 7,2 C 87 % 1019,2 hPa 0,0 l/m 0,8 km/h (0 Bft) S-SO 158 0 min 0,000 mm 0,9 UV-I 158 W/m 5,2 C 7,2 C 3,2 km/h (1 Bft) 100,00 %
17.10.2015 10:45 7,4 C 84 % 1019,2 hPa 0,0 l/m 0,5 km/h (0 Bft) W-SW 240 0 min 0,000 mm 1,0 UV-I 214 W/m 4,9 C 7,4 C 3,2 km/h (1 Bft) 98,17 %
17.10.2015 10:50 7,7 C 84 % 1019,1 hPa 0,0 l/m 1,8 km/h (1 Bft) W-SW 244 5 min 0,000 mm 1,1 UV-I 336 W/m 5,2 C 7,7 C 4,8 km/h (1 Bft) 98,26 %
17.10.2015 10:55 7,8 C 82 % 1019,1 hPa 0,0 l/m 1,6 km/h (1 Bft) S 187 0 min 0,000 mm 1,0 UV-I 171 W/m 4,9 C 7,8 C 4,8 km/h (1 Bft) 100,00 %
17.10.2015 11:00 7,4 C 82 % 1019,1 hPa 0,0 l/m 0,4 km/h (0 Bft) S 188 0 min 0,101 mm 0,9 UV-I 96 W/m 4,5 C 7,4 C 3,2 km/h (1 Bft) 100,00 %
17.10.2015 11:05 7,5 C 83 % 1019,0 hPa 0,0 l/m 0,1 km/h (0 Bft) S 190 0 min 0,000 mm 0,9 UV-I 104 W/m 4,8 C 7,5 C 1,6 km/h (1 Bft) 98,37 %
17.10.2015 11:10 7,3 C 82 % 1019,0 hPa 0,0 l/m 0,8 km/h (0 Bft) S 189 0 min 0,000 mm 1,0 UV-I 110 W/m 4,4 C 7,3 C 3,2 km/h (1 Bft) 97,32 %
17.10.2015 11:15 7,6 C 82 % 1019,0 hPa 0,0 l/m 0,0 km/h (0 Bft) S 189 0 min 0,000 mm 1,1 UV-I 112 W/m 4,7 C 7,6 C 1,6 km/h (1 Bft) 99,13 %
17.10.2015 11:20 7,4 C 84 % 1019,0 hPa 0,0 l/m 0,8 km/h (0 Bft) S 178 0 min 0,000 mm 1,1 UV-I 97 W/m 4,9 C 7,4 C 3,2 km/h (1 Bft) 100,00 %
17.10.2015 11:25 7,9 C 84 % 1018,9 hPa 0,0 l/m 2,1 km/h (1 Bft) O 100 0 min 0,000 mm 1,2 UV-I 125 W/m 5,4 C 7,9 C 3,2 km/h (1 Bft) 100,00 %
17.10.2015 11:30 8,1 C 82 % 1018,9 hPa 0,0 l/m 1,3 km/h (1 Bft) O 90 5 min 0,000 mm 1,4 UV-I 392 W/m 5,2 C 8,1 C 3,2 km/h (1 Bft) 99,13 %
17.10.2015 11:35 8,4 C 81 % 1018,8 hPa 0,0 l/m 1,5 km/h (1 Bft) S 190 5 min 0,000 mm 1,6 UV-I 470 W/m 5,3 C 8,4 C 4,8 km/h (1 Bft) 99,15 %
17.10.2015 11:40 8,3 C 79 % 1018,9 hPa 0,0 l/m 1,9 km/h (1 Bft) SO 130 0 min 0,000 mm 1,3 UV-I 269 W/m 4,9 C 8,3 C 4,8 km/h (1 Bft) 100,00 %
17.10.2015 11:45 8,3 C 79 % 1018,8 hPa 0,0 l/m 2,7 km/h (1 Bft) S-SW 200 5 min 0,000 mm 1,5 UV-I 316 W/m 4,9 C 8,3 C 6,4 km/h (2 Bft) 100,00 %
17.10.2015 11:50 8,5 C 75 % 1018,8 hPa 0,0 l/m 1,9 km/h (1 Bft) SO 136 5 min 0,000 mm 1,6 UV-I 498 W/m 4,3 C 8,5 C 4,8 km/h (1 Bft) 100,00 %
17.10.2015 11:55 8,7 C 71 % 1018,7 hPa 0,0 l/m 1,4 km/h (1 Bft) O 94 5 min 0,000 mm 1,7 UV-I 512 W/m 3,7 C 8,7 C 4,8 km/h (1 Bft) 99,21 %
17.10.2015 12:00 9,1 C 77 % 1018,6 hPa 0,0 l/m 2,3 km/h (1 Bft) O 81 5 min 0,127 mm 1,7 UV-I 529 W/m 5,3 C 9,1 C 4,8 km/h (1 Bft) 100,00 %
17.10.2015 12:05 9,5 C 77 % 1018,6 hPa 0,0 l/m 0,8 km/h (0 Bft) O 92 5 min 0,000 mm 1,8 UV-I 576 W/m 5,7 C 9,5 C 3,2 km/h (1 Bft) 97,30 %
17.10.2015 12:10 9,8 C 76 % 1018,6 hPa 0,0 l/m 0,5 km/h (0 Bft) O-SO 115 5 min 0,000 mm 1,8 UV-I 605 W/m 5,8 C 9,8 C 3,2 km/h (1 Bft) 100,00 %
17.10.2015 12:15 9,9 C 75 % 1018,6 hPa 0,0 l/m 1,3 km/h (1 Bft) O-SO 108 5 min 0,000 mm 1,8 UV-I 560 W/m 5,7 C 9,9 C 4,8 km/h (1 Bft) 100,00 %
17.10.2015 12:20 9,4 C 72 % 1018,6 hPa 0,0 l/m 2,2 km/h (1 Bft) O-SO 106 5 min 0,000 mm 1,4 UV-I 431 W/m 4,6 C 9,4 C 6,4 km/h (2 Bft) 99,21 %
17.10.2015 12:25 9,2 C 72 % 1018,5 hPa 0,0 l/m 1,9 km/h (1 Bft) S-SW 210 0 min 0,000 mm 1,2 UV-I 269 W/m 4,4 C 9,2 C 6,4 km/h (2 Bft) 100,00 %
17.10.2015 12:30 8,9 C 73 % 1018,5 hPa 0,0 l/m 1,5 km/h (1 Bft) O 96 0 min 0,000 mm 1,1 UV-I 257 W/m 4,3 C 8,9 C 4,8 km/h (1 Bft) 100,00 %
17.10.2015 12:35 8,8 C 69 % 1018,4 hPa 0,0 l/m 1,4 km/h (1 Bft) SW 234 0 min 0,000 mm 1,0 UV-I 230 W/m 3,4 C 8,8 C 4,8 km/h (1 Bft) 98,37 %
17.10.2015 12:40 8,9 C 72 % 1018,4 hPa 0,0 l/m 1,8 km/h (1 Bft) W-NW 296 0 min 0,000 mm 0,9 UV-I 204 W/m 4,1 C 8,9 C 4,8 km/h (1 Bft) 100,00 %
17.10.2015 12:45 8,9 C 71 % 1018,3 hPa 0,0 l/m 1,7 km/h (1 Bft) W-NW 292 0 min 0,000 mm 0,9 UV-I 202 W/m 3,9 C 8,9 C 4,8 km/h (1 Bft) 99,10 %
17.10.2015 12:50 9,1 C 74 % 1018,3 hPa 0,0 l/m 1,2 km/h (1 Bft) N 355 0 min 0,000 mm 0,9 UV-I 203 W/m 4,7 C 9,1 C 4,8 km/h (1 Bft) 99,17 %
17.10.2015 12:55 9,1 C 75 % 1018,2 hPa 0,0 l/m 1,0 km/h (0 Bft) W-NW 297 0 min 0,000 mm 1,1 UV-I 221 W/m 4,9 C 9,1 C 3,2 km/h (1 Bft) 99,08 %
17.10.2015 13:00 9,1 C 71 % 1018,2 hPa 0,0 l/m 2,8 km/h (1 Bft) N-NO 30 0 min 0,153 mm 1,1 UV-I 230 W/m 4,1 C 9,1 C 6,4 km/h (2 Bft) 99,21 %
17.10.2015 13:05 9,2 C 72 % 1018,2 hPa 0,0 l/m 1,0 km/h (0 Bft) N-NO 25 0 min 0,000 mm 1,2 UV-I 237 W/m 4,4 C 9,2 C 3,2 km/h (1 Bft) 99,13 %
17.10.2015 13:10 9,3 C 71 % 1018,1 hPa 0,0 l/m 0,3 km/h (0 Bft) NO 36 0 min 0,000 mm 1,2 UV-I 238 W/m 4,3 C 9,3 C 3,2 km/h (1 Bft) 100,00 %
17.10.2015 13:15 9,3 C 68 % 1018,1 hPa 0,0 l/m 0,3 km/h (0 Bft) NO 51 0 min 0,000 mm 1,2 UV-I 232 W/m 3,7 C 9,3 C 1,6 km/h (1 Bft) 99,17 %
17.10.2015 13:20 9,4 C 71 % 1018,0 hPa 0,0 l/m 1,4 km/h (1 Bft) O 82 0 min 0,000 mm 1,1 UV-I 216 W/m 4,4 C 9,4 C 6,4 km/h (2 Bft) 98,68 %
17.10.2015 13:25 9,3 C 67 % 1018,0 hPa 0,0 l/m 1,5 km/h (1 Bft) N 5 0 min 0,000 mm 0,9 UV-I 181 W/m 3,5 C 9,3 C 4,8 km/h (1 Bft) 100,00 %
17.10.2015 13:30 9,3 C 71 % 1018,0 hPa 0,0 l/m 1,3 km/h (1 Bft) NO 35 0 min 0,000 mm 0,8 UV-I 166 W/m 4,3 C 9,3 C 4,8 km/h (1 Bft) 99,17 %
17.10.2015 13:35 9,3 C 71 % 1018,0 hPa 0,0 l/m 1,5 km/h (1 Bft) O 82 0 min 0,000 mm 0,8 UV-I 160 W/m 4,3 C 9,3 C 3,2 km/h (1 Bft) 100,00 %
17.10.2015 13:40 9,3 C 69 % 1017,9 hPa 0,0 l/m 1,6 km/h (1 Bft) O 90 0 min 0,000 mm 0,9 UV-I 173 W/m 3,9 C 9,3 C 4,8 km/h (1 Bft) 100,00 %
17.10.2015 13:45 9,3 C 67 % 1017,9 hPa 0,0 l/m 2,7 km/h (1 Bft) O 88 0 min 0,000 mm 0,9 UV-I 187 W/m 3,5 C 9,3 C 8,0 km/h (2 Bft) 99,16 %
17.10.2015 13:50 9,3 C 72 % 1017,8 hPa 0,0 l/m 1,3 km/h (1 Bft) SO 130 0 min 0,000 mm 1,0 UV-I 203 W/m 4,5 C 9,3 C 4,8 km/h (1 Bft) 99,06 %
17.10.2015 13:55 9,4 C 75 % 1017,7 hPa 0,0 l/m 3,4 km/h (1 Bft) N-NO 18 0 min 0,000 mm 1,0 UV-I 202 W/m 5,2 C 9,4 C 6,4 km/h (2 Bft) 100,00 %
17.10.2015 14:00 9,4 C 77 % 1017,8 hPa 0,0 l/m 3,1 km/h (1 Bft) N-NO 18 0 min 0,101 mm 1,0 UV-I 201 W/m 5,6 C 9,4 C 6,4 km/h (2 Bft) 99,11 %
17.10.2015 14:05 9,3 C 76 % 1017,7 hPa 0,0 l/m 1,9 km/h (1 Bft) N 9 0 min 0,000 mm 0,9 UV-I 206 W/m 5,3 C 9,3 C 6,4 km/h (2 Bft) 100,00 %
17.10.2015 14:10 9,3 C 75 % 1017,8 hPa 0,0 l/m 4,0 km/h (1 Bft) N 9 0 min 0,000 mm 1,0 UV-I 209 W/m 5,1 C 9,3 C 6,4 km/h (2 Bft) 99,21 %
17.10.2015 14:15 9,4 C 79 % 1017,8 hPa 0,0 l/m 3,3 km/h (1 Bft) N-NO 17 0 min 0,000 mm 0,9 UV-I 199 W/m 5,9 C 9,4 C 8,0 km/h (2 Bft) 100,00 %
17.10.2015 14:20 9,5 C 79 % 1017,7 hPa 0,0 l/m 3,6 km/h (1 Bft) N 355 0 min 0,000 mm 0,9 UV-I 212 W/m 6,0 C 9,5 C 8,0 km/h (2 Bft) 100,00 %
17.10.2015 14:25 9,5 C 75 % 1017,7 hPa 0,0 l/m 3,1 km/h (1 Bft) N-NO 21 0 min 0,000 mm 1,0 UV-I 221 W/m 5,3 C 9,5 C 6,4 km/h (2 Bft) 100,00 %
17.10.2015 14:30 9,5 C 75 % 1017,7 hPa 0,0 l/m 3,9 km/h (1 Bft) N 11 0 min 0,000 mm 0,9 UV-I 212 W/m 5,3 C 9,5 C 8,0 km/h (2 Bft) 100,00 %
17.10.2015 14:35 9,3 C 71 % 1017,7 hPa 0,0 l/m 2,7 km/h (1 Bft) N 349 0 min 0,000 mm 0,9 UV-I 228 W/m 4,3 C 9,3 C 6,4 km/h (2 Bft) 100,00 %
17.10.2015 14:40 9,4 C 75 % 1017,6 hPa 0,0 l/m 3,2 km/h (1 Bft) N-NO 22 0 min 0,000 mm 0,9 UV-I 208 W/m 5,2 C 9,4 C 8,0 km/h (2 Bft) 98,21 %
17.10.2015 14:45 9,6 C 76 % 1017,7 hPa 0,0 l/m 2,3 km/h (1 Bft) N-NO 15 0 min 0,000 mm 0,8 UV-I 194 W/m 5,6 C 9,6 C 6,4 km/h (2 Bft) 99,08 %
17.10.2015 14:50 9,6 C 76 % 1017,7 hPa 0,0 l/m 2,3 km/h (1 Bft) NO 43 0 min 0,000 mm 0,8 UV-I 192 W/m 5,6 C 9,6 C 6,4 km/h (2 Bft) 100,00 %
17.10.2015 14:55 9,6 C 74 % 1017,7 hPa 0,0 l/m 2,7 km/h (1 Bft) N 355 0 min 0,000 mm 0,7 UV-I 180 W/m 5,2 C 9,6 C 6,4 km/h (2 Bft) 99,15 %
17.10.2015 15:00 9,5 C 73 % 1017,7 hPa 0,0 l/m 2,6 km/h (1 Bft) N-NO 32 0 min 0,102 mm 0,7 UV-I 169 W/m 4,9 C 9,5 C 4,8 km/h (1 Bft) 100,00 %
17.10.2015 15:05 9,4 C 75 % 1017,7 hPa 0,0 l/m 2,6 km/h (1 Bft) NO 42 0 min 0,000 mm 0,6 UV-I 163 W/m 5,2 C 9,4 C 4,8 km/h (1 Bft) 99,19 %
17.10.2015 15:10 9,5 C 71 % 1017,7 hPa 0,0 l/m 1,8 km/h (1 Bft) O-SO 114 0 min 0,000 mm 0,6 UV-I 176 W/m 4,5 C 9,5 C 4,8 km/h (1 Bft) 99,11 %
17.10.2015 15:15 9,5 C 75 % 1017,7 hPa 0,0 l/m 2,0 km/h (1 Bft) N 5 0 min 0,000 mm 0,7 UV-I 196 W/m 5,3 C 9,5 C 4,8 km/h (1 Bft) 100,00 %
17.10.2015 15:20 9,5 C 75 % 1017,7 hPa 0,0 l/m 2,7 km/h (1 Bft) N 5 0 min 0,000 mm 0,7 UV-I 186 W/m 5,3 C 9,5 C 3,2 km/h (1 Bft) 100,00 %
17.10.2015 15:30 9,4 C 73 % 1017,7 hPa 0,0 l/m 1,3 km/h (1 Bft) N 10 0 min 0,000 mm 0,6 UV-I 181 W/m 4,8 C 9,4 C 3,2 km/h (1 Bft) 99,37 %
17.10.2015 15:35 9,4 C 73 % 1017,7 hPa 0,0 l/m 1,9 km/h (1 Bft) N-NO 22 0 min 0,000 mm 0,6 UV-I 177 W/m 4,8 C 9,4 C 4,8 km/h (1 Bft) 100,00 %
17.10.2015 15:40 9,4 C 71 % 1017,8 hPa 0,0 l/m 2,0 km/h (1 Bft) N-NO 14 0 min 0,000 mm 0,5 UV-I 154 W/m 4,4 C 9,4 C 6,4 km/h (2 Bft) 99,08 %
17.10.2015 15:45 9,5 C 73 % 1017,8 hPa 0,0 l/m 1,3 km/h (1 Bft) N-NO 27 0 min 0,000 mm 0,5 UV-I 132 W/m 4,9 C 9,5 C 4,8 km/h (1 Bft) 100,00 %
17.10.2015 15:50 9,6 C 74 % 1017,8 hPa 0,0 l/m 2,5 km/h (1 Bft) N-NO 17 0 min 0,000 mm 0,0 UV-I 123 W/m 5,2 C 9,6 C 6,4 km/h (2 Bft) 100,00 %
17.10.2015 15:55 9,4 C 72 % 1017,8 hPa 0,0 l/m 2,8 km/h (1 Bft) N-NO 19 0 min 0,000 mm 0,0 UV-I 110 W/m 4,6 C 9,4 C 4,8 km/h (1 Bft) 99,19 %
17.10.2015 16:00 9,4 C 70 % 1017,8 hPa 0,0 l/m 2,0 km/h (1 Bft) N-NO 16 0 min 0,076 mm 0,0 UV-I 100 W/m 4,2 C 9,4 C 4,8 km/h (1 Bft) 99,12 %
17.10.2015 16:05 9,3 C 73 % 1017,8 hPa 0,0 l/m 2,9 km/h (1 Bft) N 5 0 min 0,000 mm 0,0 UV-I 93 W/m 4,7 C 9,3 C 6,4 km/h (2 Bft) 100,00 %
17.10.2015 16:10 9,3 C 72 % 1017,8 hPa 0,0 l/m 2,3 km/h (1 Bft) N-NO 22 0 min 0,000 mm 0,0 UV-I 74 W/m 4,5 C 9,3 C 4,8 km/h (1 Bft) 100,00 %
17.10.2015 16:15 9,3 C 72 % 1017,8 hPa 0,0 l/m 2,4 km/h (1 Bft) N 351 0 min 0,000 mm 0,0 UV-I 85 W/m 4,5 C 9,3 C 4,8 km/h (1 Bft) 98,41 %
17.10.2015 16:20 9,3 C 73 % 1017,7 hPa 0,0 l/m 3,2 km/h (1 Bft) N 355 0 min 0,000 mm 0,0 UV-I 97 W/m 4,7 C 9,3 C 6,4 km/h (2 Bft) 100,00 %
17.10.2015 16:25 9,3 C 71 % 1017,7 hPa 0,0 l/m 2,0 km/h (1 Bft) N-NO 12 0 min 0,000 mm 0,0 UV-I 111 W/m 4,3 C 9,3 C 4,8 km/h (1 Bft) 98,26 %
17.10.2015 16:30 9,4 C 71 % 1017,7 hPa 0,0 l/m 1,2 km/h (1 Bft) N-NO 15 0 min 0,000 mm 0,0 UV-I 130 W/m 4,4 C 9,4 C 3,2 km/h (1 Bft) 100,00 %
17.10.2015 16:35 9,5 C 70 % 1017,7 hPa 0,0 l/m 2,0 km/h (1 Bft) N-NO 21 5 min 0,000 mm 0,0 UV-I 159 W/m 4,3 C 9,5 C 4,8 km/h (1 Bft) 99,13 %
17.10.2015 16:40 9,4 C 69 % 1017,7 hPa 0,0 l/m 2,2 km/h (1 Bft) N-NO 19 0 min 0,000 mm 0,0 UV-I 94 W/m 4,0 C 9,4 C 4,8 km/h (1 Bft) 100,00 %
17.10.2015 16:45 9,3 C 71 % 1017,8 hPa 0,0 l/m 2,2 km/h (1 Bft) N-NO 22 0 min 0,000 mm 0,0 UV-I 74 W/m 4,3 C 9,3 C 4,8 km/h (1 Bft) 100,00 %
17.10.2015 16:50 9,2 C 70 % 1017,8 hPa 0,0 l/m 2,8 km/h (1 Bft) N 355 0 min 0,000 mm 0,0 UV-I 69 W/m 4,0 C 9,2 C 4,8 km/h (1 Bft) 99,17 %
17.10.2015 16:55 9,1 C 70 % 1017,8 hPa 0,0 l/m 1,9 km/h (1 Bft) N 355 0 min 0,000 mm 0,0 UV-I 65 W/m 3,9 C 9,1 C 4,8 km/h (1 Bft) 100,00 %
17.10.2015 17:00 9,1 C 71 % 1017,8 hPa 0,0 l/m 2,8 km/h (1 Bft) N 5 0 min 0,051 mm 0,0 UV-I 56 W/m 4,1 C 9,1 C 6,4 km/h (2 Bft) 99,15 %
17.10.2015 17:05 9,1 C 71 % 1017,8 hPa 0,0 l/m 2,0 km/h (1 Bft) N 9 0 min 0,000 mm 0,0 UV-I 57 W/m 4,1 C 9,1 C 4,8 km/h (1 Bft) 99,13 %
17.10.2015 17:10 9,0 C 71 % 1017,7 hPa 0,0 l/m 2,6 km/h (1 Bft) N 11 0 min 0,000 mm 0,0 UV-I 54 W/m 4,0 C 9,0 C 4,8 km/h (1 Bft) 100,00 %
17.10.2015 17:15 9,0 C 72 % 1017,8 hPa 0,0 l/m 1,8 km/h (1 Bft) N 11 0 min 0,000 mm 0,0 UV-I 42 W/m 4,2 C 9,0 C 3,2 km/h (1 Bft) 100,00 %
17.10.2015 17:20 8,9 C 73 % 1017,8 hPa 0,0 l/m 2,0 km/h (1 Bft) N-NO 30 0 min 0,000 mm 0,0 UV-I 18 W/m 4,3 C 8,9 C 4,8 km/h (1 Bft) 99,11 %
17.10.2015 17:25 8,8 C 74 % 1017,8 hPa 0,0 l/m 2,1 km/h (1 Bft) N-NO 17 0 min 0,000 mm 0,0 UV-I 11 W/m 4,4 C 8,8 C 4,8 km/h (1 Bft) 99,19 %
17.10.2015 17:30 8,8 C 72 % 1017,7 hPa 0,0 l/m 1,1 km/h (1 Bft) NO 40 0 min 0,000 mm 0,0 UV-I 10 W/m 4,0 C 8,8 C 3,2 km/h (1 Bft) 100,00 %
17.10.2015 17:35 8,7 C 74 % 1017,7 hPa 0,0 l/m 2,6 km/h (1 Bft) N-NO 29 0 min 0,000 mm 0,0 UV-I 12 W/m 4,3 C 8,7 C 4,8 km/h (1 Bft) 100,00 %
17.10.2015 17:40 8,7 C 72 % 1017,7 hPa 0,0 l/m 2,5 km/h (1 Bft) NO 36 0 min 0,000 mm 0,0 UV-I 19 W/m 3,9 C 8,7 C 4,8 km/h (1 Bft) 99,11 %
17.10.2015 17:45 8,7 C 72 % 1017,7 hPa 0,0 l/m 1,8 km/h (1 Bft) N-NO 25 0 min 0,000 mm 0,0 UV-I 19 W/m 3,9 C 8,7 C 4,8 km/h (1 Bft) 99,13 %
17.10.2015 17:50 8,6 C 72 % 1017,6 hPa 0,0 l/m 2,8 km/h (1 Bft) N-NO 26 0 min 0,000 mm 0,0 UV-I 18 W/m 3,8 C 8,6 C 4,8 km/h (1 Bft) 100,00 %
17.10.2015 17:55 8,6 C 75 % 1017,7 hPa 0,0 l/m 2,0 km/h (1 Bft) N-NO 32 0 min 0,000 mm 0,0 UV-I 13 W/m 4,4 C 8,6 C 3,2 km/h (1 Bft) 99,06 %
17.10.2015 18:00 8,6 C 74 % 1017,8 hPa 0,0 l/m 1,7 km/h (1 Bft) N-NO 25 5 min 0,025 mm 0,0 UV-I 11 W/m 4,2 C 8,6 C 3,2 km/h (1 Bft) 99,21 %
17.10.2015 18:05 8,5 C 75 % 1017,8 hPa 0,0 l/m 1,6 km/h (1 Bft) N-NO 29 0 min 0,000 mm 0,0 UV-I 7 W/m 4,3 C 8,5 C 3,2 km/h (1 Bft) 100,00 %
17.10.2015 18:10 8,4 C 75 % 1017,8 hPa 0,0 l/m 0,3 km/h (0 Bft) NO 35 0 min 0,000 mm 0,0 UV-I 1 W/m 4,2 C 8,4 C 1,6 km/h (1 Bft) 100,00 %
17.10.2015 18:15 8,4 C 76 % 1017,8 hPa 0,0 l/m 0,4 km/h (0 Bft) NO 35 0 min 0,000 mm 0,0 UV-I 0 W/m 4,4 C 8,4 C 1,6 km/h (1 Bft) 100,00 %
17.10.2015 18:20 8,3 C 76 % 1017,8 hPa 0,0 l/m 0,0 km/h (0 Bft) NO 35 0 min 0,000 mm 0,0 UV-I 0 W/m 4,3 C 8,3 C 1,6 km/h (1 Bft) 99,19 %
17.10.2015 18:25 8,3 C 77 % 1017,8 hPa 0,0 l/m 0,0 km/h (0 Bft) NO 35 0 min 0,000 mm 0,0 UV-I 0 W/m 4,5 C 8,3 C 1,6 km/h (1 Bft) 100,00 %
17.10.2015 18:30 8,2 C 81 % 1017,9 hPa 0,0 l/m 0,0 km/h (0 Bft) NO 35 0 min 0,000 mm 0,0 UV-I 0 W/m 5,1 C 8,2 C 0,0 km/h (0 Bft) 98,37 %
17.10.2015 18:35 8,0 C 84 % 1017,9 hPa 0,0 l/m 0,2 km/h (0 Bft) NO 35 0 min 0,000 mm 0,0 UV-I 0 W/m 5,5 C 8,0 C 1,6 km/h (1 Bft) 100,00 %
17.10.2015 18:40 7,8 C 84 % 1017,9 hPa 0,0 l/m 1,0 km/h (0 Bft) NO 35 0 min 0,000 mm 0,0 UV-I 0 W/m 5,3 C 7,8 C 3,2 km/h (1 Bft) 100,00 %
17.10.2015 18:45 7,8 C 81 % 1017,9 hPa 0,0 l/m 1,7 km/h (1 Bft) O-NO 70 0 min 0,000 mm 0,0 UV-I 0 W/m 4,7 C 7,8 C 3,2 km/h (1 Bft) 100,00 %
17.10.2015 18:50 7,8 C 84 % 1017,9 hPa 0,0 l/m 1,3 km/h (1 Bft) O-NO 70 0 min 0,000 mm 0,0 UV-I 0 W/m 5,3 C 7,8 C 3,2 km/h (1 Bft) 99,17 %
17.10.2015 18:55 7,6 C 85 % 1017,8 hPa 0,0 l/m 0,8 km/h (0 Bft) O 88 0 min 0,000 mm 0,0 UV-I 0 W/m 5,2 C 7,6 C 3,2 km/h (1 Bft) 100,00 %
17.10.2015 19:00 7,5 C 85 % 1017,7 hPa 0,0 l/m 1,2 km/h (1 Bft) O 93 0 min 0,000 mm 0,0 UV-I 0 W/m 5,1 C 7,5 C 3,2 km/h (1 Bft) 100,00 %
17.10.2015 19:05 7,4 C 85 % 1017,8 hPa 0,0 l/m 0,5 km/h (0 Bft) O 93 0 min 0,000 mm 0,0 UV-I 0 W/m 5,0 C 7,4 C 1,6 km/h (1 Bft) 100,00 %
17.10.2015 19:10 7,4 C 85 % 1017,7 hPa 0,0 l/m 1,4 km/h (1 Bft) O-SO 117 0 min 0,000 mm 0,0 UV-I 0 W/m 5,0 C 7,4 C 3,2 km/h (1 Bft) 98,26 %
17.10.2015 19:15 7,6 C 82 % 1017,7 hPa 0,0 l/m 1,6 km/h (1 Bft) O-SO 117 0 min 0,000 mm 0,0 UV-I 0 W/m 4,7 C 7,6 C 4,8 km/h (1 Bft) 98,25 %
17.10.2015 19:20 7,7 C 82 % 1017,7 hPa 0,0 l/m 1,0 km/h (0 Bft) SO 130 0 min 0,000 mm 0,0 UV-I 0 W/m 4,8 C 7,7 C 3,2 km/h (1 Bft) 100,00 %
17.10.2015 19:25 7,7 C 83 % 1017,7 hPa 0,0 l/m 0,8 km/h (0 Bft) SO 130 0 min 0,000 mm 0,0 UV-I 0 W/m 5,0 C 7,7 C 3,2 km/h (1 Bft) 98,21 %
17.10.2015 19:30 7,7 C 83 % 1017,7 hPa 0,0 l/m 0,4 km/h (0 Bft) SO 132 0 min 0,000 mm 0,0 UV-I 0 W/m 5,0 C 7,7 C 1,6 km/h (1 Bft) 100,00 %
17.10.2015 19:35 7,6 C 86 % 1017,7 hPa 0,0 l/m 0,9 km/h (0 Bft) O-SO 123 0 min 0,000 mm 0,0 UV-I 0 W/m 5,4 C 7,6 C 3,2 km/h (1 Bft) 97,58 %
17.10.2015 19:40 7,6 C 82 % 1017,7 hPa 0,0 l/m 1,6 km/h (1 Bft) O-SO 119 0 min 0,000 mm 0,0 UV-I 0 W/m 4,7 C 7,6 C 4,8 km/h (1 Bft) 100,00 %
17.10.2015 19:45 7,7 C 83 % 1017,6 hPa 0,0 l/m 1,9 km/h (1 Bft) O-SO 106 0 min 0,000 mm 0,0 UV-I 0 W/m 5,0 C 7,7 C 4,8 km/h (1 Bft) 99,19 %
17.10.2015 19:50 7,7 C 82 % 1017,7 hPa 0,0 l/m 0,3 km/h (0 Bft) O-SO 106 0 min 0,000 mm 0,0 UV-I 0 W/m 4,8 C 7,7 C 3,2 km/h (1 Bft) 99,17 %
17.10.2015 19:55 7,8 C 82 % 1017,6 hPa 0,0 l/m 1,1 km/h (1 Bft) O-SO 116 0 min 0,000 mm 0,0 UV-I 0 W/m 4,9 C 7,8 C 4,8 km/h (1 Bft) 100,00 %
17.10.2015 20:00 7,8 C 81 % 1017,6 hPa 0,0 l/m 0,8 km/h (0 Bft) O-SO 105 0 min 0,000 mm 0,0 UV-I 0 W/m 4,7 C 7,8 C 3,2 km/h (1 Bft) 99,17 %
17.10.2015 20:05 7,8 C 81 % 1017,6 hPa 0,0 l/m 1,4 km/h (1 Bft) O 95 0 min 0,000 mm 0,0 UV-I 0 W/m 4,7 C 7,8 C 3,2 km/h (1 Bft) 100,00 %
17.10.2015 20:10 7,9 C 80 % 1017,6 hPa 0,0 l/m 1,4 km/h (1 Bft) SO 139 0 min 0,000 mm 0,0 UV-I 0 W/m 4,7 C 7,9 C 4,8 km/h (1 Bft) 99,10 %
17.10.2015 20:15 7,9 C 81 % 1017,6 hPa 0,0 l/m 0,9 km/h (0 Bft) O-SO 123 0 min 0,000 mm 0,0 UV-I 0 W/m 4,8 C 7,9 C 3,2 km/h (1 Bft) 99,15 %
17.10.2015 20:20 7,9 C 83 % 1017,6 hPa 0,0 l/m 0,3 km/h (0 Bft) O-SO 122 0 min 0,000 mm 0,0 UV-I 0 W/m 5,2 C 7,9 C 1,6 km/h (1 Bft) 99,11 %
17.10.2015 20:25 7,8 C 82 % 1017,6 hPa 0,0 l/m 0,2 km/h (0 Bft) O-SO 122 0 min 0,000 mm 0,0 UV-I 0 W/m 4,9 C 7,8 C 1,6 km/h (1 Bft) 99,17 %
17.10.2015 20:30 7,9 C 80 % 1017,6 hPa 0,0 l/m 0,4 km/h (0 Bft) O-SO 107 0 min 0,000 mm 0,0 UV-I 0 W/m 4,7 C 7,9 C 3,2 km/h (1 Bft) 100,00 %
17.10.2015 20:35 7,8 C 86 % 1017,7 hPa 0,0 l/m 0,0 km/h (0 Bft) O-SO 107 0 min 0,000 mm 0,0 UV-I 0 W/m 5,6 C 7,8 C 0,0 km/h (0 Bft) 100,00 %
17.10.2015 20:40 7,7 C 87 % 1017,7 hPa 0,0 l/m 0,0 km/h (0 Bft) O-SO 107 0 min 0,000 mm 0,0 UV-I 0 W/m 5,7 C 7,7 C 0,0 km/h (0 Bft) 99,13 %
17.10.2015 20:45 7,6 C 86 % 1017,8 hPa 0,0 l/m 0,0 km/h (0 Bft) O-SO 107 0 min 0,000 mm 0,0 UV-I 0 W/m 5,4 C 7,6 C 0,0 km/h (0 Bft) 97,46 %
17.10.2015 20:50 7,5 C 87 % 1017,8 hPa 0,0 l/m 0,0 km/h (0 Bft) O-SO 107 0 min 0,000 mm 0,0 UV-I 0 W/m 5,5 C 7,5 C 0,0 km/h (0 Bft) 99,19 %
17.10.2015 20:55 7,4 C 89 % 1017,8 hPa 0,0 l/m 0,0 km/h (0 Bft) O-SO 107 0 min 0,000 mm 0,0 UV-I 0 W/m 5,7 C 7,4 C 0,0 km/h (0 Bft) 99,08 %
17.10.2015 21:00 7,4 C 89 % 1017,8 hPa 0,0 l/m 0,0 km/h (0 Bft) O-SO 107 0 min 0,000 mm 0,0 UV-I 0 W/m 5,7 C 7,4 C 0,0 km/h (0 Bft) 98,37 %
17.10.2015 21:05 7,3 C 90 % 1017,7 hPa 0,0 l/m 0,1 km/h (0 Bft) O-SO 107 0 min 0,000 mm 0,0 UV-I 0 W/m 5,8 C 7,3 C 1,6 km/h (1 Bft) 100,00 %
17.10.2015 21:10 7,3 C 86 % 1017,7 hPa 0,0 l/m 0,6 km/h (0 Bft) O-SO 106 0 min 0,000 mm 0,0 UV-I 0 W/m 5,1 C 7,3 C 1,6 km/h (1 Bft) 99,19 %
17.10.2015 21:15 7,6 C 85 % 1017,8 hPa 0,0 l/m 0,0 km/h (0 Bft) O-SO 106 0 min 0,000 mm 0,0 UV-I 0 W/m 5,2 C 7,6 C 0,0 km/h (0 Bft) 99,12 %
17.10.2015 21:20 7,7 C 84 % 1017,8 hPa 0,0 l/m 0,0 km/h (0 Bft) O-SO 106 0 min 0,000 mm 0,0 UV-I 0 W/m 5,2 C 7,7 C 0,0 km/h (0 Bft) 99,17 %
17.10.2015 21:25 7,7 C 84 % 1017,8 hPa 0,0 l/m 0,0 km/h (0 Bft) O-SO 106 0 min 0,000 mm 0,0 UV-I 0 W/m 5,2 C 7,7 C 0,0 km/h (0 Bft) 98,11 %
17.10.2015 21:30 7,5 C 85 % 1017,8 hPa 0,0 l/m 0,0 km/h (0 Bft) O-SO 106 0 min 0,000 mm 0,0 UV-I 0 W/m 5,1 C 7,5 C 0,0 km/h (0 Bft) 100,00 %
17.10.2015 21:35 7,5 C 87 % 1017,7 hPa 0,0 l/m 0,0 km/h (0 Bft) O-SO 106 0 min 0,000 mm 0,0 UV-I 0 W/m 5,5 C 7,5 C 0,0 km/h (0 Bft) 100,00 %
17.10.2015 21:40 7,2 C 89 % 1017,7 hPa 0,0 l/m 0,0 km/h (0 Bft) O-SO 106 0 min 0,000 mm 0,0 UV-I 0 W/m 5,5 C 7,2 C 0,0 km/h (0 Bft) 99,19 %
17.10.2015 21:45 7,2 C 89 % 1017,7 hPa 0,0 l/m 0,0 km/h (0 Bft) O-SO 106 0 min 0,000 mm 0,0 UV-I 0 W/m 5,5 C 7,2 C 0,0 km/h (0 Bft) 99,10 %
17.10.2015 21:50 7,3 C 88 % 1017,7 hPa 0,0 l/m 0,1 km/h (0 Bft) O-SO 106 0 min 0,000 mm 0,0 UV-I 0 W/m 5,4 C 7,3 C 1,6 km/h (1 Bft) 98,35 %
17.10.2015 21:55 7,3 C 87 % 1017,6 hPa 0,0 l/m 0,0 km/h (0 Bft) O-SO 106 0 min 0,000 mm 0,0 UV-I 0 W/m 5,3 C 7,3 C 0,0 km/h (0 Bft) 98,33 %
17.10.2015 22:00 7,2 C 88 % 1017,7 hPa 0,0 l/m 0,0 km/h (0 Bft) O-SO 106 0 min 0,000 mm 0,0 UV-I 0 W/m 5,3 C 7,2 C 0,0 km/h (0 Bft) 99,08 %
17.10.2015 22:05 7,3 C 86 % 1017,7 hPa 0,0 l/m 0,0 km/h (0 Bft) O-SO 106 0 min 0,000 mm 0,0 UV-I 0 W/m 5,1 C 7,3 C 0,0 km/h (0 Bft) 97,58 %
17.10.2015 22:10 7,3 C 87 % 1017,7 hPa 0,0 l/m 0,0 km/h (0 Bft) O-SO 106 0 min 0,000 mm 0,0 UV-I 0 W/m 5,3 C 7,3 C 0,0 km/h (0 Bft) 99,17 %
17.10.2015 22:15 7,2 C 87 % 1017,7 hPa 0,0 l/m 0,5 km/h (0 Bft) O-SO 106 0 min 0,000 mm 0,0 UV-I 0 W/m 5,2 C 7,2 C 1,6 km/h (1 Bft) 99,08 %
17.10.2015 22:20 7,2 C 87 % 1017,6 hPa 0,0 l/m 1,1 km/h (1 Bft) O-SO 107 0 min 0,000 mm 0,0 UV-I 0 W/m 5,2 C 7,2 C 3,2 km/h (1 Bft) 98,48 %
17.10.2015 22:25 7,2 C 86 % 1017,6 hPa 0,0 l/m 1,4 km/h (1 Bft) O 90 0 min 0,000 mm 0,0 UV-I 0 W/m 5,0 C 7,2 C 3,2 km/h (1 Bft) 100,00 %
17.10.2015 22:30 7,2 C 85 % 1017,6 hPa 0,0 l/m 0,8 km/h (0 Bft) O 87 0 min 0,000 mm 0,0 UV-I 0 W/m 4,9 C 7,2 C 3,2 km/h (1 Bft) 99,22 %
17.10.2015 22:35 7,2 C 84 % 1017,6 hPa 0,0 l/m 1,4 km/h (1 Bft) O-SO 122 0 min 0,000 mm 0,0 UV-I 0 W/m 4,7 C 7,2 C 4,8 km/h (1 Bft) 100,00 %
17.10.2015 22:40 7,2 C 84 % 1017,7 hPa 0,0 l/m 1,6 km/h (1 Bft) O-SO 117 0 min 0,000 mm 0,0 UV-I 0 W/m 4,7 C 7,2 C 3,2 km/h (1 Bft) 99,13 %
17.10.2015 22:45 7,1 C 85 % 1017,7 hPa 0,0 l/m 1,6 km/h (1 Bft) S-SO 154 0 min 0,000 mm 0,0 UV-I 0 W/m 4,8 C 7,1 C 4,8 km/h (1 Bft) 100,00 %
17.10.2015 22:50 6,9 C 86 % 1017,7 hPa 0,0 l/m 1,1 km/h (1 Bft) SO 136 0 min 0,000 mm 0,0 UV-I 0 W/m 4,7 C 6,9 C 3,2 km/h (1 Bft) 100,00 %
17.10.2015 22:55 6,9 C 86 % 1017,6 hPa 0,0 l/m 1,7 km/h (1 Bft) O 89 0 min 0,000 mm 0,0 UV-I 0 W/m 4,7 C 6,9 C 4,8 km/h (1 Bft) 99,03 %
17.10.2015 23:00 6,9 C 85 % 1017,5 hPa 0,0 l/m 2,1 km/h (1 Bft) O 92 0 min 0,000 mm 0,0 UV-I 0 W/m 4,6 C 6,9 C 6,4 km/h (2 Bft) 97,10 %
17.10.2015 23:05 7,1 C 85 % 1017,7 hPa 0,0 l/m 1,6 km/h (1 Bft) O 93 0 min 0,000 mm 0,0 UV-I 0 W/m 4,8 C 7,1 C 4,8 km/h (1 Bft) 99,08 %
17.10.2015 23:10 7,2 C 85 % 1017,7 hPa 0,0 l/m 1,6 km/h (1 Bft) O 82 0 min 0,000 mm 0,0 UV-I 0 W/m 4,9 C 7,2 C 4,8 km/h (1 Bft) 99,17 %
17.10.2015 23:15 7,1 C 86 % 1017,7 hPa 0,0 l/m 0,8 km/h (0 Bft) O 82 0 min 0,000 mm 0,0 UV-I 0 W/m 4,9 C 7,1 C 1,6 km/h (1 Bft) 99,19 %
17.10.2015 23:20 6,9 C 86 % 1017,7 hPa 0,0 l/m 0,9 km/h (0 Bft) O 82 0 min 0,000 mm 0,0 UV-I 0 W/m 4,7 C 6,9 C 3,2 km/h (1 Bft) 99,11 %
17.10.2015 23:25 6,8 C 87 % 1017,6 hPa 0,0 l/m 0,8 km/h (0 Bft) O 85 0 min 0,000 mm 0,0 UV-I 0 W/m 4,8 C 6,8 C 1,6 km/h (1 Bft) 100,00 %
17.10.2015 23:30 6,5 C 89 % 1017,6 hPa 0,0 l/m 1,0 km/h (0 Bft) O 98 0 min 0,000 mm 0,0 UV-I 0 W/m 4,8 C 6,5 C 3,2 km/h (1 Bft) 99,11 %
17.10.2015 23:35 6,6 C 88 % 1017,6 hPa 0,0 l/m 2,0 km/h (1 Bft) O 88 0 min 0,000 mm 0,0 UV-I 0 W/m 4,8 C 6,6 C 6,4 km/h (2 Bft) 99,19 %
17.10.2015 23:40 6,8 C 87 % 1017,5 hPa 0,0 l/m 2,1 km/h (1 Bft) O-SO 122 0 min 0,000 mm 0,0 UV-I 0 W/m 4,8 C 6,8 C 4,8 km/h (1 Bft) 100,00 %
17.10.2015 23:45 6,8 C 87 % 1017,5 hPa 0,0 l/m 2,7 km/h (1 Bft) O 86 0 min 0,000 mm 0,0 UV-I 0 W/m 4,8 C 6,8 C 4,8 km/h (1 Bft) 100,00 %
17.10.2015 23:50 6,9 C 87 % 1017,5 hPa 0,0 l/m 1,3 km/h (1 Bft) O-NO 77 0 min 0,000 mm 0,0 UV-I 0 W/m 4,9 C 6,9 C 3,2 km/h (1 Bft) 99,08 %
17.10.2015 23:55 6,8 C 87 % 1017,5 hPa 0,0 l/m 1,8 km/h (1 Bft) O 82 0 min 0,000 mm 0,0 UV-I 0 W/m 4,8 C 6,8 C 4,8 km/h (1 Bft) 100,00 %
_ Min-Zeit 01:50 13:25 23:00 - 05:00 - - - - - - 01:50 01:50 05:00 00:05
Minimum _ 3,7 C 67 % 1017,5 hPa - 0,0 km/h (0 Bft) - - - - - - 3,1 C 3,7 C 0,0 km/h (0 Bft) 73,33 %
_ Max-Zeit 12:20 01:55 08:50 00:00 14:10 - - 09:35 13:00 12:05 12:10 14:20 12:15 10:30 00:15
Maximum _ 10,0 C 97 % 1019,3 hPa 0,0 l/m 4,0 km/h
N (1 Bft)
- - 5 min 0,153 mm 1,8 UV-I 605 W/m 6,0 C 9,9 C 8,0 km/h
S-SO (2 Bft)
100,00 %
Durchschnitt _ 6,9 C 86 % 1018,3 hPa #0,0 l/m 1,2 km/h (1 Bft) N-NO - #2:05 h #0,838 mm 1,0 UV-I 171 W/m 4,6 C 6,9 C 3,3 km/h (1 Bft) 99,28 %